[[{"header":{"parameterUnit":"m.s-1","parameterCategory":1,"la1":30.2991,"la2":30.254,"lo1":-89.0895,"lo2":-89.0444,"dy":0.0017,"dx":0.0017,"nx":28,"ny":28,"refTime":"2024-12-07T03:00:00:Z","depth":0,"parameterNumber":2,"parameterNumberName":"U-component_of_WINDS"},"data":[0,0,0,0,0,0,0,0,0,0,0,0,0,0,0,0,0,0,0,0,0,0,0,0,0,0,0,0,0,0,0,0,0,0,0,0,0,0,0,0,0,0,0,0,0,0,0,0,0,0,0,0,0,0,0,0,0,0,-1.1184,-1.1185,0,-1.1236,-1.1236,-1.1237,-1.119,-1.1188,-1.1186,-1.1184,-1.1239,-1.1242,-1.1246,0,0,0,0,0,0,0,0,0,0,0,0,0,-1.1046,-1.1048,-1.1184,-1.1185,-1.1185,-1.1236,-1.1236,-1.1237,-1.119,-1.1188,-1.1186,-1.1184,-1.1238,-1.1242,-1.1246,0,0,0,0,0,0,0,0,0,0,0,0,0,-1.1102,-1.1049,-1.1184,-1.1168,-1.1167,-1.1235,-1.1236,-1.1237,-1.1191,-1.1188,-1.1185,-1.1183,-1.1237,-1.1242,-1.1246,-1.1334,0,0,-1.1261,-1.1263,0,0,0,0,0,0,0,0,-1.1099,-1.1108,-1.117,-1.1169,-1.1168,-1.1203,-1.1208,-1.127,-1.1192,-1.1182,-1.1184,-1.1181,-1.123,-1.1235,-1.1251,-1.1336,-1.1339,-1.1262,-1.1265,-1.1267,-1.1268,0,0,0,0,0,0,0,-1.1095,-1.1105,-1.1204,-1.1171,-1.117,-1.1159,-1.1163,-1.1219,-1.1221,-1.1183,-1.1179,-1.1186,-1.1229,-1.1247,-1.1252,-1.1339,-1.1262,-1.1266,-1.1269,-1.1271,-1.1498,-1.1501,0,0,0,0,0,0,-1.1093,-1.1102,-1.1203,-1.1206,-1.1126,-1.1163,-1.1169,-1.1195,-1.1221,-1.1222,-1.1188,-1.1184,-1.124,-1.1246,-1.1254,-1.1358,-1.1267,-1.1271,-1.1274,-1.1494,-1.1498,-1.1502,0,0,0,0,0,0,-1.109,-1.1102,-1.1201,-1.1153,-1.1165,-1.1169,-1.1199,-1.1198,-1.1215,-1.1225,-1.1225,-1.1206,-1.1238,-1.1247,-1.1314,-1.1359,-1.1273,-1.1278,-1.1491,-1.1496,-1.15,-1.1566,0,0,0,0,0,0,-1.1086,-1.1102,-1.1135,-1.1154,-1.1168,-1.126,-1.1201,-1.1201,-1.1224,-1.1218,-1.1242,-1.1243,-1.1236,-1.1307,-1.1319,-1.1364,-1.1282,-1.1487,-1.1493,-1.1498,-1.156,-1.1572,-1.1583,0,0,0,0,0,-1.1082,-1.1152,-1.1137,-1.1149,-1.1209,-1.1263,-1.1271,-1.1261,-1.1227,-1.1261,-1.1267,-1.1242,-1.1351,-1.1314,-1.1327,-1.1375,-1.1484,-1.1491,-1.1498,-1.1555,-1.157,-1.1583,0,0,0,0,0,0,-1.1139,-1.1154,-1.1138,-1.1217,-1.1239,-1.1255,-1.1297,-1.1277,-1.131,-1.1304,-1.1291,-1.1296,-1.1367,-1.1377,-1.1335,-1.146,-1.1412,-1.1422,-1.1451,-1.1466,-1.1477,-1.1474,-1.1286,0,0,0,0,0,-1.1161,-1.1203,-1.1214,-1.1282,-1.1294,-1.1294,-1.1317,-1.1307,-1.133,-1.1339,-1.135,-1.1373,-1.1413,-1.1439,-1.1476,-1.156,-1.1565,-1.1599,-1.161,-1.162,-1.1629,-1.1674,-1.1689,-1.1525,-1.1525,-1.1524,0,0,-1.1207,-1.122,-1.1248,-1.1294,-1.131,-1.1354,-1.1302,-1.1351,-1.1384,-1.1347,-1.1411,-1.1419,-1.1444,-1.152,-1.1554,-1.153,-1.1675,-1.1629,-1.1636,-1.1641,-1.1683,-1.1698,-1.1712,-1.1529,-1.1528,-1.1528,0,0,-1.1313,-1.1327,-1.1385,-1.1402,-1.1426,-1.1425,-1.1439,-1.1458,-1.1462,-1.1525,-1.1498,-1.1536,-1.1605,-1.1624,-1.1642,-1.1753,-1.1731,-1.1765,-1.1826,-1.187,-1.1883,-1.1895,-1.1935,-1.1949,-1.1774,-1.1774,-1.1774,0,-1.1367,-1.1432,-1.1418,-1.1469,-1.149,-1.1457,-1.1516,-1.1533,-1.1568,-1.1584,-1.1557,-1.1641,-1.1655,-1.1735,-1.1762,-1.1777,-1.1793,-1.1763,-1.1882,-1.1894,-1.1904,-1.1942,-1.1957,-1.1778,-1.1777,-1.1777,-1.1777,0,-1.1498,-1.1543,-1.1587,-1.1621,-1.1647,-1.1702,-1.1696,-1.1724,-1.1711,-1.1713,-1.1777,-1.1793,-1.1832,-1.185,-1.1839,-1.1928,-1.1912,-1.1884,-1.1837,-1.1924,-1.196,-1.1974,-1.1784,-1.1782,-1.1781,-1.178,0,0,-1.1645,-1.1668,-1.1685,-1.17,-1.1723,-1.1758,-1.181,-1.1848,-1.1872,-1.1897,-1.1941,-1.1998,-1.1971,-1.1992,-1.1982,-1.202,-1.2107,-1.1987,-1.1988,-1.201,-1.2207,-1.2229,-1.2246,-1.2092,-1.2095,-1.2097,-1.2205,0,-1.1752,-1.1844,-1.1831,-1.1919,-1.1961,-1.1929,-1.1974,-1.1994,-1.1996,-1.2031,-1.2033,-1.2075,-1.2036,-1.2048,-1.2084,-1.2089,-1.2147,-1.2081,-1.2134,-1.2136,-1.2131,-1.2265,-1.2289,-1.2391,-1.2219,-1.2221,-1.2223,0,-1.1891,-1.192,-1.2012,-1.2027,-1.2044,-1.2086,-1.2118,-1.2152,-1.2173,-1.2172,-1.2194,-1.2177,-1.2229,-1.2179,-1.2251,-1.2206,-1.2226,-1.2232,-1.2235,-1.2242,-1.2186,-1.2276,-1.2423,-1.2438,-1.2244,-1.2243,-1.2241,0,-1.199,-1.2052,-1.2114,-1.2128,-1.2147,-1.2177,-1.2187,-1.2204,-1.2227,-1.2255,-1.227,-1.2304,-1.2323,-1.235,-1.2342,-1.2306,-1.2416,-1.2365,-1.2417,-1.2418,-1.2444,-1.2443,-1.2597,-1.2454,-1.2454,-1.2454,-1.2453,0,-1.2113,-1.2171,-1.2159,-1.2198,-1.2261,-1.2246,-1.2309,-1.2315,-1.233,-1.2369,-1.2343,-1.238,-1.2367,-1.2403,-1.2397,-1.2458,-1.2466,-1.2467,-1.2465,-1.2471,-1.2471,-1.2486,-1.2479,-1.2458,-1.2457,-1.2456,-1.2455,0,-1.2236,-1.223,-1.2297,-1.2309,-1.2313,-1.2359,-1.237,-1.2406,-1.2405,-1.2455,-1.2466,-1.2464,-1.2506,-1.25,-1.2546,-1.2541,-1.2618,-1.2606,-1.2611,-1.2609,-1.2662,-1.2657,-1.2833,-1.2855,-1.2696,-1.2698,-1.2699,0,-1.2316,-1.2359,-1.2375,-1.2399,-1.2411,-1.245,-1.2472,-1.2458,-1.2483,-1.2508,-1.2542,-1.258,-1.2611,-1.2678,-1.2682,-1.2717,-1.2707,-1.2766,-1.2712,-1.2716,-1.2709,-1.2707,-1.2712,-1.2777,-1.2779,-1.278,-1.2782,0,-1.2458,-1.2453,-1.2486,-1.2519,-1.2546,-1.2571,-1.2593,-1.2614,-1.2602,-1.2631,-1.2672,-1.2696,-1.2742,-1.2781,-1.2813,-1.2823,-1.2801,-1.2798,-1.2812,-1.2819,-1.282,-1.2821,-1.2642,-1.2795,-1.2793,-1.2792,-1.2792,-1.2791,-1.2563,-1.26,-1.2617,-1.2654,-1.2669,-1.269,-1.2725,-1.2727,-1.2761,-1.2798,-1.2786,-1.2834,-1.2851,-1.2892,-1.2905,-1.2942,-1.292,-1.294,-1.2946,-1.2952,-1.2958,-1.2813,-1.2947,-1.2947,-1.2947,-1.2946,-1.2946,0,-1.2705,-1.2714,-1.2748,-1.278,-1.2809,-1.2784,-1.2806,-1.2833,-1.2875,-1.2893,-1.2923,-1.297,-1.3007,-1.3012,-1.3047,-1.3075,-1.3066,-1.3085,-1.3084,-1.3086,-1.2975,-1.296,-1.3092,-1.3092,-1.3092,-1.3092,-1.3092,-1.3092,-1.2783,-1.2844,-1.284,-1.2907,-1.2915,-1.2961,-1.2976,-1.2995,-1.3009,-1.3063,-1.3093,-1.3096,-1.3109,-1.3144,-1.3176,-1.3177,-1.3191,-1.3215,-1.3212,-1.3108,-1.3094,-1.308,-1.3066,-1.3218,-1.3218,-1.332,-1.3321,-1.3321]},{"header":{"parameterUnit":"m.s-1","parameterCategory":1,"la1":30.2991,"la2":30.254,"lo1":-89.0895,"lo2":-89.0444,"dy":0.0017,"dx":0.0017,"nx":28,"ny":28,"refTime":"2024-12-07T03:00:00:Z","depth":0,"parameterNumber":3,"parameterNumberName":"V-component_of_WINDS"},"data":[0,0,0,0,0,0,0,0,0,0,0,0,0,0,0,0,0,0,0,0,0,0,0,0,0,0,0,0,0,0,0,0,0,0,0,0,0,0,0,0,0,0,0,0,0,0,0,0,0,0,0,0,0,0,0,0,0,0,-4.8156,-4.8157,0,-4.8256,-4.8257,-4.8258,-4.8166,-4.8162,-4.8158,-4.8155,-4.8253,-4.8259,-4.8265,0,0,0,0,0,0,0,0,0,0,0,0,0,-4.7881,-4.7886,-4.8156,-4.8157,-4.8158,-4.8255,-4.8257,-4.8258,-4.8166,-4.8162,-4.8157,-4.8153,-4.8251,-4.8258,-4.8265,0,0,0,0,0,0,0,0,0,0,0,0,0,-4.7992,-4.7888,-4.8156,-4.8124,-4.8122,-4.8255,-4.8257,-4.8259,-4.8167,-4.8162,-4.8156,-4.8151,-4.8249,-4.8257,-4.8266,-4.8434,0,0,-4.8294,-4.8298,0,0,0,0,0,0,0,0,-4.7986,-4.8003,-4.8128,-4.8127,-4.8125,-4.8193,-4.8196,-4.8317,-4.8169,-4.815,-4.8155,-4.8148,-4.8237,-4.8247,-4.8278,-4.8439,-4.8443,-4.8295,-4.8301,-4.8305,-4.8307,0,0,0,0,0,0,0,-4.7979,-4.7998,-4.8195,-4.8129,-4.8128,-4.8104,-4.8113,-4.8218,-4.8223,-4.8151,-4.8145,-4.8158,-4.8235,-4.8269,-4.8279,-4.8444,-4.8295,-4.8303,-4.8309,-4.8312,-4.8746,-4.8752,0,0,0,0,0,0,-4.7975,-4.7992,-4.8192,-4.8198,-4.8041,-4.8113,-4.8124,-4.8176,-4.8222,-4.8224,-4.8163,-4.8153,-4.8256,-4.8269,-4.8282,-4.8481,-4.8304,-4.8313,-4.8318,-4.874,-4.8748,-4.8754,0,0,0,0,0,0,-4.7969,-4.7994,-4.8188,-4.8093,-4.8116,-4.8124,-4.8183,-4.8181,-4.8215,-4.8231,-4.8231,-4.8197,-4.8252,-4.827,-4.8397,-4.8483,-4.8317,-4.8325,-4.8733,-4.8742,-4.8751,-4.888,0,0,0,0,0,0,-4.7962,-4.7992,-4.8057,-4.8096,-4.8122,-4.8303,-4.8189,-4.8187,-4.8231,-4.822,-4.8263,-4.8264,-4.8249,-4.8384,-4.8406,-4.8493,-4.8333,-4.8725,-4.8737,-4.8748,-4.8868,-4.8893,-4.8913,0,0,0,0,0,-4.7952,-4.8089,-4.8061,-4.8086,-4.8203,-4.8308,-4.8323,-4.8304,-4.8239,-4.8303,-4.8313,-4.8263,-4.847,-4.8398,-4.8422,-4.8513,-4.872,-4.8734,-4.8747,-4.8858,-4.8888,-4.8913,0,0,0,0,0,0,-4.806,-4.8094,-4.8063,-4.8216,-4.826,-4.8292,-4.8373,-4.8336,-4.8398,-4.8385,-4.8357,-4.8368,-4.8502,-4.852,-4.8439,-4.8676,-4.8584,-4.8603,-4.866,-4.8689,-4.8711,-4.8704,-4.834,0,0,0,0,0,-4.8101,-4.8185,-4.8209,-4.8342,-4.8366,-4.8366,-4.8411,-4.8393,-4.8436,-4.8454,-4.8473,-4.8516,-4.8591,-4.864,-4.871,-4.887,-4.8877,-4.8944,-4.8966,-4.8985,-4.9002,-4.9087,-4.9116,-4.8799,-4.8799,-4.8799,0,0,-4.8188,-4.8217,-4.8271,-4.8365,-4.8396,-4.8482,-4.8382,-4.8477,-4.854,-4.8468,-4.859,-4.8605,-4.8651,-4.8796,-4.886,-4.8814,-4.9091,-4.9002,-4.9017,-4.9024,-4.9104,-4.9134,-4.916,-4.8808,-4.8806,-4.8805,0,0,-4.839,-4.8421,-4.8534,-4.8568,-4.8618,-4.8617,-4.8644,-4.8682,-4.869,-4.8812,-4.8759,-4.8833,-4.8962,-4.8997,-4.9031,-4.9245,-4.9201,-4.9269,-4.9386,-4.9469,-4.9494,-4.9516,-4.9592,-4.962,-4.9285,-4.9286,-4.9286,0,-4.8491,-4.8619,-4.8597,-4.8696,-4.8738,-4.8678,-4.8792,-4.8825,-4.8895,-4.8924,-4.8872,-4.9033,-4.906,-4.9211,-4.9263,-4.9293,-4.9322,-4.9264,-4.9493,-4.9515,-4.9535,-4.9607,-4.9635,-4.9293,-4.9293,-4.9292,-4.9291,0,-4.8741,-4.8831,-4.8916,-4.8986,-4.9038,-4.9144,-4.9136,-4.9191,-4.9167,-4.9171,-4.9295,-4.9325,-4.94,-4.9434,-4.9412,-4.9582,-4.9552,-4.9497,-4.9404,-4.9573,-4.964,-4.9668,-4.9305,-4.9302,-4.93,-4.9298,0,0,-4.9014,-4.907,-4.9101,-4.9132,-4.9182,-4.925,-4.9352,-4.9426,-4.9473,-4.9522,-4.9607,-4.9717,-4.9666,-4.9706,-4.9687,-4.976,-4.9926,-4.9695,-4.9696,-4.9737,-5.0114,-5.0155,-5.0188,-4.9897,-4.9902,-4.9906,-5.011,0,-4.9217,-4.9397,-4.9379,-4.955,-4.9631,-4.9574,-4.9663,-4.9702,-4.9709,-4.9778,-4.9783,-4.9862,-4.979,-4.9813,-4.9882,-4.9891,-5.0001,-4.9876,-4.9974,-4.9978,-4.9964,-5.0223,-5.0267,-5.0458,-5.0136,-5.0141,-5.0144,0,-4.9479,-4.9538,-4.9717,-4.9754,-4.9787,-4.9868,-4.9933,-5.0001,-5.0043,-5.0042,-5.0086,-5.0054,-5.0155,-5.006,-5.0198,-5.0113,-5.0152,-5.0162,-5.0169,-5.0177,-5.0071,-5.0238,-5.0519,-5.0547,-5.0185,-5.0182,-5.0179,0,-4.9659,-4.9784,-4.9907,-4.9935,-4.9981,-5.0039,-5.006,-5.0097,-5.0142,-5.0199,-5.0227,-5.0295,-5.0332,-5.0383,-5.037,-5.0302,-5.0511,-5.0415,-5.0512,-5.0513,-5.0559,-5.0556,-5.085,-5.0584,-5.0584,-5.0583,-5.0583,0,-4.9888,-5.0,-4.9989,-5.0065,-5.0187,-5.0165,-5.0286,-5.03,-5.0334,-5.041,-5.0364,-5.0436,-5.0413,-5.0484,-5.0474,-5.0589,-5.0606,-5.0607,-5.0603,-5.0612,-5.0612,-5.0637,-5.0623,-5.0591,-5.0589,-5.0588,-5.0586,0,-5.0111,-5.0109,-5.0239,-5.0272,-5.0282,-5.0371,-5.0398,-5.0468,-5.047,-5.0567,-5.0588,-5.0592,-5.0672,-5.0663,-5.0753,-5.0746,-5.0889,-5.0869,-5.0876,-5.0871,-5.0969,-5.096,-5.1289,-5.1331,-5.1038,-5.1041,-5.1044,0,-5.0258,-5.0342,-5.0384,-5.0432,-5.0458,-5.0536,-5.0582,-5.0563,-5.0612,-5.0666,-5.073,-5.0806,-5.0867,-5.0998,-5.1007,-5.1075,-5.1056,-5.1166,-5.1066,-5.1071,-5.1057,-5.1052,-5.106,-5.1186,-5.119,-5.1192,-5.1195,0,-5.0518,-5.0512,-5.0581,-5.0649,-5.0705,-5.0758,-5.0805,-5.0847,-5.0832,-5.0889,-5.0972,-5.1019,-5.111,-5.1187,-5.1251,-5.127,-5.123,-5.1226,-5.1252,-5.1262,-5.1262,-5.1263,-5.093,-5.1219,-5.1216,-5.1215,-5.1213,-5.1212,-5.0707,-5.0779,-5.082,-5.0897,-5.0931,-5.0976,-5.1044,-5.1055,-5.1123,-5.1198,-5.1181,-5.1274,-5.1312,-5.1395,-5.1421,-5.1492,-5.1452,-5.149,-5.1499,-5.1509,-5.152,-5.1251,-5.1504,-5.1503,-5.1502,-5.1502,-5.1501,0,-5.0964,-5.0987,-5.1059,-5.1127,-5.1188,-5.1145,-5.1195,-5.1249,-5.1331,-5.1371,-5.1432,-5.1526,-5.1599,-5.1614,-5.1683,-5.1737,-5.172,-5.1756,-5.1752,-5.1757,-5.1553,-5.1523,-5.1768,-5.1768,-5.1768,-5.1768,-5.1768,-5.1768,-5.1105,-5.1225,-5.1224,-5.1359,-5.1381,-5.1472,-5.1505,-5.1545,-5.1577,-5.1685,-5.1746,-5.1755,-5.1785,-5.1856,-5.1921,-5.1923,-5.195,-5.1994,-5.1989,-5.1798,-5.1771,-5.1746,-5.1718,-5.2,-5.2,-5.2187,-5.2188,-5.219]}]]